OE3PDB-4 Weather Reports


time (UTC)temp
C
wind
direction
speed
KPH
gust
KPH
rain 1hr
cm
rain 24hr
cm
rain mn
cm
humidity
%
barometer
mb
20260905223025 20 247 0.0 0.0 0.00 0.05 0.00 57 1022.1
20260905222025 20 247 0.0 0.0 0.00 0.05 0.00 57 1022.1
20260905221025 20 247 0.0 0.0 0.00 0.05 0.00 57 1021.9
20260905220025 20 270 0.0 0.0 0.00 0.05 0.00 57 1021.8
20260905215025 20 22 0.0 0.0 0.00 0.05 0.00 56 1021.6
20260905214025 20 67 0.0 0.0 0.00 0.05 0.00 56 1021.6
20260905213025 20 315 0.0 1.6 0.00 0.05 0.00 56 1021.5
20260905212025 20 247 0.0 0.0 0.00 0.05 0.00 56 1021.4
20260905211025 20 292 0.0 0.0 0.00 0.05 0.00 56 1021.3
20260905210025 20 225 0.0 0.0 0.00 0.05 0.00 55 1021.2
20260905205025 21 315 0.0 0.0 0.00 0.05 0.00 55 1021.2
20260905204025 21 337 0.0 4.8 0.00 0.05 0.00 55 1021.2
20260905203025 21 315 0.0 6.4 0.00 0.05 0.00 55 1021.1
20260905202025 21 315 0.0 0.0 0.00 0.05 0.00 55 1021.1
20260905201025 21 337 0.0 0.0 0.00 0.05 0.00 55 1021.1
20260905200025 21 315 0.0 0.0 0.00 0.05 0.00 55 1020.9
20260905195025 21 337 0.0 0.0 0.00 0.05 0.00 55 1020.9
20260905194025 21 180 0.0 0.0 0.00 0.05 0.00 55 1020.8
20260905193025 21 337 0.0 1.6 0.00 0.05 0.00 55 1020.7
20260905192025 21 315 3.2 3.2 0.00 0.05 0.00 55 1020.8
20260905191025 21 337 0.0 0.0 0.00 0.05 0.00 55 1020.8
20260905190025 21 315 0.0 0.0 0.00 0.05 0.00 54 1020.7
20260905185025 21 315 0.0 0.0 0.00 0.05 0.00 54 1020.5
20260905184025 21 315 0.0 3.2 0.00 0.05 0.00 53 1020.3
20260905183025 21 337 0.0 0.0 0.00 0.05 0.00 53 1020.2
20260905182025 21 247 0.0 0.0 0.00 0.05 0.00 53 1020.2
20260905181025 21 337 0.0 0.0 0.00 0.05 0.00 52 1020.1
20260905180025 21 337 0.0 0.0 0.00 0.05 0.00 52 1020.0
20260905175025 22 315 0.0 0.0 0.00 0.05 0.00 51 1019.8
20260905174025 22 315 0.0 0.0 0.00 0.05 0.00 51 1019.6
20260905173025 22 337 0.0 0.0 0.00 0.05 0.00 50 1019.5
20260905172025 22 337 0.0 0.0 0.00 0.05 0.00 49 1019.4
20260905171025 22 315 0.0 0.0 0.00 0.05 0.00 49 1019.5
20260905170025 22 315 3.2 3.2 0.00 0.05 0.00 48 1019.5
20260905165025 23 337 0.0 0.0 0.00 0.05 0.00 47 1019.3
20260905164025 23 337 0.0 0.0 0.00 0.05 0.00 46 1019.3
20260905163025 23 337 0.0 0.0 0.00 0.05 0.00 46 1019.2
20260905162025 24 337 0.0 0.0 0.00 0.05 0.00 45 1019.1
20260905161025 25 225 0.0 0.0 0.00 0.05 0.00 44 1019.0
20260905160025 25 292 0.0 0.0 0.00 0.05 0.00 43 1018.9
20260905155025 25 315 0.0 0.0 0.00 0.05 0.00 43 1018.9
20260905154025 25 180 0.0 0.0 0.00 0.05 0.00 43 1018.9
20260905153025 25 337 8.0 8.0 0.00 0.05 0.00 43 1019.0
20260905152025 25 337 0.0 0.0 0.00 0.05 0.00 42 1018.9
20260905151025 26 337 0.0 0.0 0.00 0.05 0.00 43 1018.9
20260905150026 26 337 0.0 3.2 0.00 0.05 0.00 43 1018.9
20260905145026 26 315 0.0 0.0 0.00 0.05 0.00 43 1018.9
20260905144026 26 315 0.0 6.4 0.00 0.05 0.00 43 1018.8
20260905143026 26 315 0.0 1.6 0.00 0.05 0.00 44 1018.9
20260905142026 26 337 0.0 0.0 0.00 0.05 0.00 44 1018.9
20260905141026 26 337 6.4 8.0 0.00 0.05 0.00 45 1019.0
20260905140026 25 202 0.0 0.0 0.00 0.05 0.00 46 1019.1
20260905135026 25 337 0.0 4.8 0.00 0.05 0.00 46 1019.2
20260905134026 25 292 0.0 0.0 0.00 0.05 0.00 46 1019.2
20260905133026 25 112 0.0 3.2 0.00 0.05 0.00 46 1019.2
20260905132026 25 337 0.0 0.0 0.00 0.05 0.00 46 1019.1
20260905131026 25 337 0.0 0.0 0.00 0.05 0.00 46 1019.2
20260905130026 25 270 0.0 3.2 0.00 0.05 0.00 46 1019.4
20260905125026 25 292 0.0 0.0 0.00 0.05 0.00 48 1019.4
20260905124026 25 45 0.0 9.7 0.00 0.05 0.00 48 1019.4
20260905123026 24 337 0.0 0.0 0.00 0.05 0.00 48 1019.3
20260905122026 25 292 0.0 0.0 0.00 0.05 0.00 49 1019.4
20260905121026 25 337 1.6 1.6 0.00 0.05 0.00 49 1019.4
20260905120026 23 337 0.0 0.0 0.00 0.05 0.00 52 1019.6
20260905115026 23 337 0.0 0.0 0.00 0.05 0.00 52 1019.6
20260905114026 22 337 0.0 0.0 0.00 0.05 0.00 53 1019.5
20260905113026 22 315 8.0 8.0 0.00 0.05 0.00 53 1019.5
20260905112026 22 315 6.4 6.4 0.00 0.05 0.00 55 1019.6
20260905111026 22 337 0.0 0.0 0.00 0.05 0.00 56 1019.6
20260905110026 22 337 3.2 3.2 0.00 0.05 0.00 59 1019.4
20260905105026 21 337 9.7 9.7 0.00 0.05 0.00 61 1019.7
20260905104026 20 157 0.0 11.3 0.00 0.05 0.00 63 1019.7
20260905103026 20 315 0.0 9.7 0.00 0.05 0.00 63 1019.8
20260905102026 20 315 0.0 0.0 0.00 0.05 0.00 64 1020.0
20260905101026 20 112 0.0 1.6 0.00 0.05 0.00 64 1019.8
20260905100026 20 315 0.0 3.2 0.00 0.05 0.00 64 1019.9
20260905095026 20 315 0.0 4.8 0.00 0.05 0.00 65 1019.9
20260905094026 20 315 0.0 0.0 0.00 0.05 0.00 65 1019.8
20260905093026 20 337 0.0 0.0 0.05 0.05 0.00 65 1019.8
20260905092026 19 315 0.0 3.2 0.05 0.05 0.00 65 1019.8
20260905091026 20 247 0.0 0.0 0.05 0.05 0.00 65 1019.8
20260905090026 19 315 0.0 0.0 0.05 0.05 0.00 66 1019.8
20260905085026 19 337 0.0 0.0 0.05 0.05 0.00 65 1019.7
20260905084026 19 315 0.0 0.0 0.05 0.05 0.00 65 1019.8
20260905083026 18 315 0.0 6.4 0.00 0.00 0.00 63 1020.1
20260905082026 19 0 0.0 0.0 0.00 0.00 0.00 62 1020.1
20260905081026 20 337 0.0 0.0 0.00 0.00 0.00 62 1020.2
20260905080026 20 225 0.0 0.0 0.00 0.00 0.00 62 1020.3
20260905075026 19 315 4.8 4.8 0.00 0.00 0.00 61 1020.3
20260905074026 19 315 4.8 4.8 0.00 0.00 0.00 61 1020.6
20260905073026 19 337 0.0 9.7 0.00 0.00 0.00 60 1020.3
20260905072026 19 337 0.0 0.0 0.00 0.00 0.00 59 1020.5
20260905071026 20 315 0.0 0.0 0.00 0.00 0.00 59 1020.5
20260905070026 20 270 0.0 0.0 0.00 0.00 0.00 59 1019.9
20260905065026 20 315 0.0 0.0 0.00 0.00 0.00 61 1019.9
20260905064026 19 315 0.0 0.0 0.00 0.00 0.00 59 1020.3
20260905063026 19 337 3.2 3.2 0.00 0.00 0.00 58 1020.3
20260905062026 20 337 0.0 8.0 0.00 0.00 0.00 57 1019.7
20260905061026 20 0 8.0 8.0 0.00 0.00 0.00 55 1019.5
20260905060026 20 292 0.0 0.0 0.00 0.00 0.00 55 1019.3
20260905055026 20 337 0.0 0.0 0.00 0.00 0.00 55 1019.2
20260905054026 20 315 0.0 3.2 0.00 0.00 0.00 55 1018.5
20260905053026 20 337 0.0 0.0 0.00 0.00 0.00 57 1018.6
20260905052026 20 337 0.0 0.0 0.00 0.00 0.00 58 1018.0
20260905051026 20 292 0.0 0.0 0.00 0.00 0.00 59 1017.9
20260905050026 20 315 0.0 0.0 0.00 0.00 0.00 61 1017.2
20260905045026 21 292 0.0 0.0 0.00 0.00 0.00 61 1017.2
20260905044026 21 315 0.0 0.0 0.00 0.00 0.00 62 1016.9
20260905043026 21 315 0.0 0.0 0.00 0.00 0.00 62 1016.8
20260905042026 21 315 0.0 0.0 0.00 0.00 0.00 61 1017.5
20260905041026 21 315 0.0 0.0 0.00 0.00 0.00 62 1017.2
20260905040026 21 292 0.0 0.0 0.00 0.00 0.00 62 1016.6
20260905035026 21 337 0.0 0.0 0.00 0.00 0.00 63 1016.8
20260905034027 21 337 0.0 0.0 0.00 0.00 0.00 63 1016.6
20260905033027 21 292 0.0 0.0 0.00 0.00 0.00 63 1016.6
20260905032027 21 292 0.0 0.0 0.00 0.00 0.00 65 1015.7
20260905031027 21 337 0.0 0.0 0.00 0.00 0.00 65 1016.0
20260905030027 21 315 0.0 0.0 0.00 0.00 0.00 64 1015.3
20260905025027 21 337 0.0 0.0 0.00 0.00 0.00 62 1014.3
20260905024027 21 315 0.0 0.0 0.00 0.00 0.00 59 1014.4
20260905023027 21 315 0.0 0.0 0.00 0.00 0.00 59 1013.9
20260905022027 21 315 0.0 0.0 0.00 0.00 0.00 59 1013.9
20260905021027 21 315 0.0 0.0 0.00 0.00 0.00 60 1013.8
20260905020027 21 315 0.0 0.0 0.00 0.00 0.00 60 1013.9
20260905015027 21 315 0.0 0.0 0.00 0.00 0.00 60 1013.7
20260905014027 21 315 0.0 0.0 0.00 0.00 0.00 60 1013.6
20260905013027 21 315 0.0 0.0 0.00 0.00 0.00 60 1013.8
20260905012027 21 315 0.0 0.0 0.00 0.00 0.00 61 1013.8
20260905011027 20 315 0.0 0.0 0.00 0.00 0.00 61 1013.7
20260905010027 20 315 0.0 0.0 0.00 0.00 0.00 61 1013.6
20260905005027 20 315 0.0 0.0 0.00 0.00 0.00 61 1013.5
20260905004027 20 315 0.0 0.0 0.00 0.00 0.00 60 1013.6
20260905003027 20 315 0.0 0.0 0.00 0.00 0.00 60 1013.6
20260905002027 20 315 0.0 0.0 0.00 0.00 0.00 60 1013.5
20260905001027 21 315 0.0 0.0 0.00 0.00 0.00 60 1013.4
20260905000027 20 315 0.0 0.0 0.00 0.00 0.00 59 1013.5
20260904235027 20 315 0.0 0.0 0.00 0.00 0.00 58 1013.4
20260904234027 20 315 0.0 0.0 0.00 0.00 0.00 59 1013.5
20260904233027 20 315 0.0 0.0 0.00 0.00 0.00 58 1013.4
20260904232027 20 315 0.0 0.0 0.00 0.00 0.00 58 1013.2
20260904231027 21 315 0.0 0.0 0.00 0.00 0.00 58 1013.3
20260904230027 21 315 0.0 0.0 0.00 0.00 0.00 57 1013.2
20260904225027 21 315 0.0 0.0 0.00 0.00 0.00 57 1013.1
20260904224027 21 315 0.0 0.0 0.00 0.00 0.00 56 1013.0